Regional Weather Roundup
Issued by NWS Goodland, KS

Home | Current Version | Previous Version | Graphics & Text | Print | Product List | Glossary On
Versions: 1 2 3 4 5 6 7 8 9 10 11 12 13 14 15 16 17 18 19 20 21 22 23 24 25 26 27 28 29 30 31 32 33 34 35 36 37 38 39 40 41 42 43 44 45 46 47 48 49 50
000
ASUS43 KGLD 201159
RWRGLD

GOODLAND FORECAST AREA HOURLY WEATHER ROUNDUP
NATIONAL WEATHER SERVICE GOODLAND KS
600 AM MDT SUN AUG 20 2017

...OFFICIAL OBSERVATIONS...

CITY           SKY/WX    TMP DP  RH WIND       PRES   REMARKS
GOODLAND KS    CLEAR     64  52  64 SW10      29.93F
HILL CITY KS   CLEAR     71  65  81 S6        29.88R
IMPERIAL NEB   CLEAR     62  55  77 VRB3      29.93R
MCCOOK NEB     CLEAR     64  56  75 W7        29.86F
AKRON CO       CLOUDY    63  43  48 W12       30.00R
BURLINGTON CO  CLEAR     61  53  75 SW7       29.98S
LIMON CO       CLEAR     50  48  93 N7        30.07S
$$

...UNOFFICIAL OBSERVATIONS...

CITY           SKY/WX    TMP DP  RH WIND       PRES   REMARKS
LENORA KS        N/A     68  32  26 S9          N/A
NORTON KS      CLEAR     64  57  77 NE3       29.87R
TRENTON NEB      N/A     67  32  27 W6          N/A
KIT CARSON CO    N/A     58  52  80 CALM        N/A
YUMA CO        FAIR      55  37  50 W5        29.96S
$$




USA.gov is the U.S. government's official web portal to all federal, state and local government web resources and services.